Weather History for KBBB - November, 2012

Change the Weather History Date:

Friday, November 9, 2012

  Actual Average Record
Temperature  
Mean Temperature 39 °F -  
Max Temperature 48 °F 40 °F 68 °F (1999)
Min Temperature 30 °F 26 °F 7 °F (1973)
Degree Days  
Heating Degree Days 26    
Moisture  
Dew Point 36 °F    
Average Humidity 84    
Maximum Humidity 100    
Minimum Humidity 71    
Precipitation  
Precipitation 0.00 in - - ()
Sea Level Pressure  
Sea Level Pressure 29.96 in    
Wind  
Wind Speed 9 mph (East)    
Max Wind Speed 20 mph    
Max Gust Speed 28 mph    
Visibility 9 miles    
Events      
Averages and records for this station are not official NWS values.
T = Trace of Precipitation, MM = Missing Value Source: NWS Daily Summary

Daily Weather History Graph

Daily Weather History Graph

Search for Another Location

Airport or City:

Trip Planner

Search our weather history database for the weather conditions in past years. The results will help you decide how hot, cold, wet, or windy it might be!

Date:

Astronomy

Nov. 09, 2012 Rise Set
Actual Time 7:13 AM CST 4:58 PM CST
Civil Twilight 6:42 AM CST 5:30 PM CST
Nautical Twilight 6:06 AM CST 6:05 PM CST
Astronomical Twilight 5:32 AM CST 6:40 PM CST
Moon 2:00 AM CST (11/9) 2:23 PM CST (11/9)
Length of Visible Light 10h 48m
Length of Day
9h 45m
Waning Crescent, 23% of the Moon is Illuminated
Nov 9
Waning Crescent
Nov 13
New
Nov 20
First Quarter
Nov 28
Full
Dec 6
Last Quarter

Hourly Weather History & Observations

Time (CST) Temp. Windchill Dew Point Humidity Pressure Visibility Wind Dir Wind Speed Gust Speed Precip Events Conditions
12:12 AM 30.2 °F 25.4 °F 28.4 °F 93% 30.03 in 4.0 mi NNE 4.6 mph - N/A   Clear
12:33 AM 30.2 °F 26.7 °F 28.4 °F 93% 30.04 in 3.0 mi NNE 3.5 mph - N/A   Clear
12:52 AM 30.2 °F 25.4 °F 28.4 °F 93% 30.03 in 3.0 mi NE 4.6 mph - N/A   Clear
1:13 AM 30.2 °F 24.3 °F 28.4 °F 93% 30.03 in 4.0 mi NE 5.8 mph - N/A   Clear
1:33 AM 30.2 °F 24.3 °F 28.4 °F 93% 30.03 in 4.0 mi NE 5.8 mph - N/A   Clear
1:52 AM 30.2 °F 24.3 °F 28.4 °F 93% 30.02 in 5.0 mi ENE 5.8 mph - N/A   Clear
2:13 AM 30.2 °F 24.3 °F 30.2 °F 100% 30.02 in 7.0 mi ENE 5.8 mph - N/A   Clear
2:32 AM 33.8 °F 27.0 °F 32.0 °F 93% 30.03 in 10.0 mi NE 8.1 mph - N/A   Clear
2:52 AM 33.8 °F 27.7 °F 33.8 °F 100% 30.04 in 10.0 mi NE 6.9 mph - N/A   Clear
3:13 AM 33.8 °F 28.6 °F 32.0 °F 93% 30.03 in 10.0 mi ENE 5.8 mph - N/A   Clear
3:32 AM 35.6 °F 29.9 °F 33.8 °F 93% 30.03 in 10.0 mi ENE 6.9 mph - N/A   Clear
3:52 AM 35.6 °F 29.9 °F 33.8 °F 93% 30.03 in 10.0 mi ENE 6.9 mph - N/A   Clear
4:13 AM 35.6 °F 29.9 °F 33.8 °F 93% 30.03 in 10.0 mi ENE 6.9 mph - N/A   Clear
4:32 AM 35.6 °F 29.9 °F 33.8 °F 93% 30.03 in 10.0 mi ENE 6.9 mph - N/A   Scattered Clouds
4:53 AM 37.4 °F 31.4 °F 35.6 °F 93% 30.03 in 10.0 mi ENE 8.1 mph - N/A   Mostly Cloudy
5:13 AM 37.4 °F 32.1 °F 35.6 °F 93% 30.03 in 10.0 mi ENE 6.9 mph - N/A   Overcast
5:52 AM 35.6 °F 30.7 °F 33.8 °F 93% 30.03 in 10.0 mi ENE 5.8 mph - N/A   Clear
6:13 AM 35.6 °F 29.9 °F 33.8 °F 93% 30.03 in 10.0 mi East 6.9 mph - N/A   Clear
6:32 AM 35.6 °F 30.7 °F 33.8 °F 93% 30.03 in 10.0 mi East 5.8 mph - N/A   Clear
6:53 AM 37.4 °F 32.8 °F 33.8 °F 87% 30.02 in 10.0 mi East 5.8 mph - N/A   Clear
7:13 AM 37.4 °F 31.4 °F 35.6 °F 93% 30.01 in 10.0 mi East 8.1 mph - N/A   Clear
7:32 AM 37.4 °F 31.4 °F 35.6 °F 93% 30.02 in 10.0 mi East 8.1 mph - N/A   Clear
7:53 AM 39.2 °F 33.6 °F 35.6 °F 87% 30.03 in 10.0 mi East 8.1 mph - N/A   Mostly Cloudy
8:13 AM 39.2 °F 33.6 °F 35.6 °F 87% 30.04 in 10.0 mi East 8.1 mph - N/A   Overcast
8:32 AM 39.2 °F 33.0 °F 37.4 °F 93% 30.04 in 10.0 mi East 9.2 mph - N/A   Overcast
8:53 AM 41.0 °F 33.5 °F 37.4 °F 87% 30.03 in 10.0 mi East 13.8 mph 18.4 mph N/A   Overcast
9:12 AM 42.8 °F 35.1 °F 37.4 °F 81% 30.03 in 10.0 mi ESE 16.1 mph 21.9 mph N/A   Overcast
9:32 AM 42.8 °F 36.2 °F 37.4 °F 81% 30.03 in 10.0 mi ESE 12.7 mph 19.6 mph N/A   Overcast
9:53 AM 42.8 °F 35.1 °F 37.4 °F 81% 30.02 in 10.0 mi East 16.1 mph 23.0 mph N/A   Overcast
10:12 AM 42.8 °F 35.1 °F 37.4 °F 81% 30.02 in 10.0 mi East 16.1 mph 20.7 mph N/A   Overcast
10:32 AM 44.6 °F 38.4 °F 37.4 °F 76% 30.00 in 10.0 mi ESE 12.7 mph 19.6 mph N/A   Overcast
10:53 AM 44.6 °F 38.1 °F 37.4 °F 76% 30.00 in 10.0 mi East 13.8 mph 18.4 mph N/A   Overcast
11:12 AM 44.6 °F 38.8 °F 37.4 °F 76% 29.99 in 10.0 mi ESE 11.5 mph 21.9 mph N/A   Overcast
11:33 AM 46.4 °F 40.1 °F 37.4 °F 71% 29.99 in 10.0 mi ESE 15.0 mph 20.7 mph N/A   Overcast
11:53 AM 44.6 °F 38.4 °F 37.4 °F 76% 29.98 in 10.0 mi ESE 12.7 mph 19.6 mph N/A   Mostly Cloudy
12:12 PM 46.4 °F 40.1 °F 39.2 °F 76% 29.96 in 10.0 mi ESE 15.0 mph 18.4 mph N/A   Clear
12:32 PM 46.4 °F 40.1 °F 39.2 °F 76% 29.95 in 10.0 mi ESE 15.0 mph 23.0 mph N/A   Scattered Clouds
12:53 PM 46.4 °F 40.1 °F 39.2 °F 76% 29.94 in 10.0 mi ESE 15.0 mph 19.6 mph N/A   Scattered Clouds
1:12 PM 48.2 °F - 39.2 °F 71% 29.93 in 10.0 mi ESE 13.8 mph - N/A   Scattered Clouds
1:33 PM 46.4 °F 40.4 °F 39.2 °F 76% 29.93 in 10.0 mi SE 13.8 mph 21.9 mph N/A   Scattered Clouds
1:53 PM 46.4 °F 40.4 °F 39.2 °F 76% 29.92 in 10.0 mi ESE 13.8 mph 19.6 mph N/A   Clear
2:12 PM 46.4 °F 41.1 °F 39.2 °F 76% 29.92 in 10.0 mi ESE 11.5 mph 20.7 mph N/A   Clear
2:32 PM 46.4 °F 40.1 °F 39.2 °F 76% 29.92 in 10.0 mi ESE 15.0 mph 24.2 mph N/A   Clear
2:53 PM 46.4 °F 40.1 °F 39.2 °F 76% 29.93 in 10.0 mi ESE 15.0 mph 19.6 mph N/A   Scattered Clouds
3:12 PM 46.4 °F 40.4 °F 39.2 °F 76% 29.92 in 10.0 mi ESE 13.8 mph 20.7 mph N/A   Scattered Clouds
3:33 PM 46.4 °F 40.7 °F 39.2 °F 76% 29.92 in 10.0 mi ESE 12.7 mph - N/A   Scattered Clouds
3:53 PM 46.4 °F 40.1 °F 37.4 °F 71% 29.92 in 10.0 mi ESE 15.0 mph 19.6 mph N/A   Scattered Clouds
4:12 PM 44.6 °F 38.8 °F 37.4 °F 76% 29.92 in 10.0 mi ESE 11.5 mph - N/A   Scattered Clouds
4:33 PM 44.6 °F 38.8 °F 37.4 °F 76% 29.92 in 10.0 mi ESE 11.5 mph 21.9 mph N/A   Scattered Clouds
4:53 PM 44.6 °F 37.8 °F 37.4 °F 76% 29.91 in 10.0 mi ESE 15.0 mph 19.6 mph N/A   Clear
5:12 PM 42.8 °F 36.2 °F 37.4 °F 81% 29.91 in 10.0 mi ESE 12.7 mph 20.7 mph N/A   Clear
5:33 PM 42.8 °F 35.8 °F 37.4 °F 81% 29.90 in 10.0 mi ESE 13.8 mph 20.7 mph N/A   Clear
5:53 PM 42.8 °F 35.8 °F 37.4 °F 81% 29.90 in 10.0 mi ESE 13.8 mph 19.6 mph N/A   Clear
6:12 PM 42.8 °F 36.2 °F 37.4 °F 81% 29.91 in 10.0 mi ESE 12.7 mph 23.0 mph N/A   Scattered Clouds
6:33 PM 42.8 °F 36.2 °F 37.4 °F 81% 29.91 in 10.0 mi ESE 12.7 mph 20.7 mph N/A   Overcast
6:52 PM 42.8 °F 35.1 °F 37.4 °F 81% 29.91 in 10.0 mi ESE 16.1 mph 25.3 mph N/A   Overcast
7:12 PM 42.8 °F 35.4 °F 37.4 °F 81% 29.89 in 10.0 mi ESE 15.0 mph 21.9 mph N/A   Mostly Cloudy
7:33 PM 42.8 °F 35.8 °F 37.4 °F 81% 29.90 in 10.0 mi ESE 13.8 mph 23.0 mph N/A   Mostly Cloudy
7:52 PM 42.8 °F 34.5 °F 37.4 °F 81% 29.89 in 10.0 mi ESE 18.4 mph 25.3 mph N/A   Overcast
8:12 PM 42.8 °F 35.8 °F 37.4 °F 81% 29.90 in 10.0 mi ESE 13.8 mph 24.2 mph N/A   Overcast
8:33 PM 42.8 °F 35.4 °F 37.4 °F 81% 29.92 in 10.0 mi ESE 15.0 mph 21.9 mph N/A   Overcast
8:52 PM 42.8 °F 35.8 °F 37.4 °F 81% 29.92 in 10.0 mi ESE 13.8 mph 19.6 mph N/A   Overcast
9:12 PM 42.8 °F 36.2 °F 37.4 °F 81% 29.92 in 10.0 mi ESE 12.7 mph - N/A   Overcast
9:33 PM 42.8 °F 35.4 °F 37.4 °F 81% 29.91 in 10.0 mi ESE 15.0 mph 20.7 mph N/A   Overcast
9:52 PM 42.8 °F 34.3 °F 37.4 °F 81% 29.89 in 10.0 mi ESE 19.6 mph 26.5 mph N/A   Overcast
10:12 PM 42.8 °F 35.4 °F 37.4 °F 81% 29.87 in 10.0 mi SE 15.0 mph 26.5 mph N/A   Overcast
10:33 PM 42.8 °F 34.8 °F 37.4 °F 81% 29.86 in 10.0 mi SE 17.3 mph 27.6 mph N/A   Overcast
10:52 PM 42.8 °F 35.1 °F 37.4 °F 81% 29.86 in 10.0 mi SE 16.1 mph 24.2 mph N/A   Overcast
11:13 PM 42.8 °F 35.8 °F 37.4 °F 81% 29.85 in 10.0 mi SE 13.8 mph 23.0 mph N/A   Overcast
11:33 PM 42.8 °F 35.4 °F 37.4 °F 81% 29.84 in 10.0 mi SE 15.0 mph 23.0 mph N/A   Overcast
11:52 PM 42.8 °F 34.3 °F 37.4 °F 81% 29.83 in 10.0 mi SE 19.6 mph 26.5 mph N/A   Overcast